Showing default

GLOBALSTAR M040, 25622

Orbit data source: Space-Track

GLOBALSTAR M040, 25622 is a payload satellite owned by Globalstar (US) in LEO that was launched on Tue, 09 Feb 1999 UTC via a SOYUZ-U-PVB launch vehicle from the Tyuratam Missile And Space Complex (TTMTR). Payload-class satellites include a variety of spacecraft equipped with specific instruments for various scientific and technological missions. These include communications satellites like Starlink; space stations such as the ISS; scientific satellites like the Hubble; Earth observation satellites from companies like Planet Labs, Umbra, and HawkEye 360; GPS; miniature CubeSats for education and research; and military/defense satellites.

Loading next visibility...
Identifier
25622, 1999-004B
Orbit
LEO
Country
Flag of UnknownUnknown / GLOB
Related business
Manufacturer
SS/Loral
Mission
Non-operational Commercial Communications
Bus & Motor
LS-400, LS-400 AOCS
Mass
450 kg wet, 380 kg dry
Launch date (UTC)
1999-02-09 (27 years ago)
Launch vehicle
SOYUZ-U-PVB
Launch site
Tyuratam Missile And Space Complex (TTMTR)
Object type
Payload
Rocket body
Debris
Shape & HBR
Box + 2 Pan, 6.0 m
Radar Cross Section
5.587 m², Large (>1 m²)

Expand to show TLE details & history
Last TLE update: 8 hours ago

TLE from 8 hours ago
0 GLOBALSTAR M040
1 25622U 99004B   25307.90619469 -.00000056  00000-0  26874-3 0  9992
2 25622  51.9937 352.3526 0000643   0.6110 170.6851 12.62021726232891
Epoch: 2025-11-03T21:44Z
TLE epoch observation values (Epoch: 2025-11-03T21:44:55.221Z)
Latitude
6.81634°
Longitude
157.3884°
Altitude
1,415.163 km
Speed
7.154 km/s
True Right ascension
11h 08m 04s
True Declination
6° 46' 46"
Sunlit
Object was in daylight at epoch
Visualization orbit readout
Latitude
Unknown
Longitude
Unknown
Altitude
Unknown
Speed
Unknown
Apparent Right ascension
Unknown
Apparent Declination
Unknown
Sunlit
N/A
Visualization observer readout
Local Sidereal Time
01:37:04
Azimuth
Unknown
Elevation
Unknown
Doppler factor
Unknown
Orbital elements
Apogee altitude
1,415.505 km
Perigee altitude
1,414.503 km
Semi-major axis
7,793.141 km
Eccentricity
0.00006
Inclination
51.9937°
RAAN
352.3526°
Arg. of periapsis
0.611°
True anomaly
170.68629°
Mean anomaly
170.6851°
Eccentric anomaly
170.6857°
Mean motion
3.15482 °/min
Orbital period
114.11 mins
BSTAR
0.00026874
Loading maneuver chart data...
Computing Atmospheric mass density...
Loading historical data...
Loading historical data...
Loading historical data...
Loading historical data...
Loading historical data...
Loading historical data...
Loading historical data...
Other satellites on launch #4 in the year 1999 (1999-02-09 UTC)

Documentation

Showing up to 5 results
|